Location: *
(51.0333°S, 178.4667°E)
Time: 18:13:26
(UTC+00:00)

Meteor 1-23 Rocket - Pass Details

Date: 15 November 2019
Orbit: 840 x 885 km, 81.3° (Epoch: 05 December)

Event Time Altitude Azimuth Distance (km) Brightness Sun altitude
Rises 09:46:59 0° 192° (SSW) 3,466 8.8 -15.4°
Reaches altitude 10° 09:49:27 10° 189° (S) 2,517 7.8 -15.6°
Maximum altitude 09:55:10 72° 104° (ESE) 903 4.3 -16.0°
Enters shadow 09:58:26 26° 24° (NNE) 1,621 5.1 -16.3°
